When you browse on this site, cookies collect data to enhance your experience and personalize the content and advertising you see.
Visit our Privacy Policy to learn more. By continuing to use the site, you agree to this use of cookies and data.
  • In Hungary
  • List of Countries
  • For 7 days
  • Water Temperature
  • Satellite Maps
  • Weather Map
  • News
  • Weather Widgets
  • user-avatar
    Login

    Hourly Weather Jedlicze

    Today, 23 April, Tuesday

    Time Temperature Precipitation Wind Pressure Humidity
    00:00 +6°C° 0 mm 2 mps 742 mmHg 74%
    01:00 +5°C° 0 mm 2 mps 742 mmHg 76%
    02:00 +5°C° 0 mm 2 mps 742 mmHg 76%
    03:00 +6°C° 0 mm 2 mps 742 mmHg 75%
    04:00 +6°C° 0 mm 2 mps 742 mmHg 74%
    05:00 +7°C° 0 mm 3 mps 742 mmHg 72%
    06:00 +7°C° 0 mm 4 mps 742 mmHg 70%
    07:00 +8°C° 0 mm 4 mps 742 mmHg 67%
    08:00 +9°C° 0 mm 5 mps 742 mmHg 62%
    09:00 +12°C° 0 mm 5 mps 742 mmHg 56%
    10:00 +14°C° 0 mm 6 mps 742 mmHg 50%
    11:00 +15°C° 0 mm 6 mps 741 mmHg 48%
    12:00 +16°C° 0 mm 6 mps 741 mmHg 46%
    13:00 +17°C° 0 mm 6 mps 741 mmHg 44%
    14:00 +16°C° 0 mm 6 mps 741 mmHg 47%
    15:00 +16°C° 0 mm 6 mps 741 mmHg 50%
    16:00 +15°C° 0 mm 6 mps 740 mmHg 52%
    17:00 +13°C° 0 mm 5 mps 740 mmHg 57%
    18:00 +12°C° 0 mm 4 mps 740 mmHg 62%
    19:00 +10°C° 0 mm 3 mps 740 mmHg 67%
    20:00 +10°C° 0 mm 3 mps 740 mmHg 68%
    21:00 +10°C° 0 mm 3 mps 740 mmHg 69%
    22:00 +10°C° 0 mm 3 mps 740 mmHg 70%
    23:00 +9°C° 0.4 mm 3 mps 740 mmHg 74%

    Tomorrow, 24 April, Wednesday

    Time Temperature Precipitation Wind Pressure Humidity
    00:00 +8°C° 0.4 mm 4 mps 740 mmHg 78%
    01:00 +8°C° 0.4 mm 5 mps 740 mmHg 82%
    02:00 +7°C° 0.1 mm 5 mps 740 mmHg 82%
    03:00 +7°C° 0.1 mm 5 mps 740 mmHg 82%
    04:00 +7°C° 0.1 mm 5 mps 740 mmHg 82%
    05:00 +8°C° 0 mm 6 mps 740 mmHg 80%
    06:00 +8°C° 0 mm 7 mps 740 mmHg 79%
    07:00 +9°C° 0 mm 7 mps 740 mmHg 77%
    08:00 +10°C° 0 mm 7 mps 741 mmHg 74%
    09:00 +12°C° 0 mm 7 mps 741 mmHg 70%
    10:00 +13°C° 0 mm 8 mps 741 mmHg 66%
    11:00 +14°C° 0.1 mm 7 mps 741 mmHg 70%
    12:00 +12°C° 0.1 mm 7 mps 741 mmHg 73%
    13:00 +13°C° 0.1 mm 6 mps 741 mmHg 76%
    14:00 +14°C° 0 mm 7 mps 741 mmHg 73%
    15:00 +15°C° 0 mm 7 mps 741 mmHg 70%
    16:00 +16°C° 0 mm 7 mps 741 mmHg 67%
    17:00 +15°C° 0 mm 6 mps 741 mmHg 71%
    18:00 +14°C° 0 mm 5 mps 741 mmHg 75%
    19:00 +13°C° 0 mm 4 mps 741 mmHg 79%
    20:00 +13°C° 0 mm 4 mps 741 mmHg 80%
    21:00 +12°C° 0 mm 4 mps 741 mmHg 82%
    22:00 +12°C° 0 mm 4 mps 741 mmHg 83%
    23:00 +12°C° 0 mm 4 mps 741 mmHg 83%

    Day after tomorrow, 25 April, Thursday

    Time Temperature Precipitation Wind Pressure Humidity
    00:00 +13°C° 0 mm 4 mps 741 mmHg 82%
    01:00 +13°C° 0 mm 4 mps 741 mmHg 81%
    02:00 +13°C° 0 mm 5 mps 741 mmHg 80%
    03:00 +13°C° 0 mm 5 mps 741 mmHg 80%
    04:00 +13°C° 0 mm 5 mps 741 mmHg 79%
    05:00 +13°C° 0 mm 6 mps 741 mmHg 78%
    06:00 +14°C° 0 mm 7 mps 741 mmHg 76%
    07:00 +14°C° 0 mm 7 mps 741 mmHg 74%
    08:00 +16°C° 0 mm 8 mps 741 mmHg 70%
    09:00 +17°C° 0 mm 8 mps 741 mmHg 65%
    10:00 +20°C° 0 mm 8 mps 741 mmHg 61%
    11:00 +20°C° 0 mm 8 mps 741 mmHg 59%
    12:00 +21°C° 0 mm 8 mps 741 mmHg 57%
    13:00 +22°C° 0 mm 8 mps 741 mmHg 54%
    14:00 +22°C° 0 mm 7 mps 741 mmHg 57%
    15:00 +22°C° 0 mm 7 mps 740 mmHg 59%
    16:00 +21°C° 0 mm 6 mps 740 mmHg 61%
    17:00 +20°C° 0 mm 5 mps 740 mmHg 66%
    18:00 +19°C° 0 mm 4 mps 740 mmHg 71%
    19:00 +18°C° 0 mm 4 mps 740 mmHg 76%
    20:00 +17°C° 0 mm 4 mps 740 mmHg 79%
    21:00 +17°C° 0 mm 4 mps 740 mmHg 82%
    22:00 +15°C° 0 mm 4 mps 740 mmHg 84%
    23:00 +15°C° 0 mm 4 mps 740 mmHg 86%

    26 April, Friday

    Time Temperature Precipitation Wind Pressure Humidity
    00:00 +15°C° 0 mm 4 mps 740 mmHg 87%
    01:00 +14°C° 0 mm 4 mps 740 mmHg 88%
    02:00 +14°C° 0 mm 4 mps 740 mmHg 88%
    03:00 +14°C° 0 mm 5 mps 740 mmHg 88%
    04:00 +14°C° 0 mm 5 mps 740 mmHg 89%
    05:00 +14°C° 0 mm 6 mps 739 mmHg 84%
    06:00 +15°C° 0 mm 7 mps 739 mmHg 80%
    07:00 +16°C° 0 mm 8 mps 739 mmHg 75%
    08:00 +18°C° 0 mm 8 mps 739 mmHg 70%
    09:00 +19°C° 0 mm 9 mps 739 mmHg 64%
    10:00 +22°C° 0 mm 9 mps 739 mmHg 59%
    11:00 +23°C° 0 mm 9 mps 738 mmHg 56%
    12:00 +24°C° 0 mm 9 mps 738 mmHg 53%
    13:00 +26°C° 0 mm 9 mps 738 mmHg 50%
    14:00 +26°C° 0 mm 8 mps 738 mmHg 52%
    15:00 +24°C° 0 mm 8 mps 737 mmHg 54%
    16:00 +24°C° 0 mm 7 mps 737 mmHg 55%
    17:00 +23°C° 0 mm 6 mps 737 mmHg 60%
    18:00 +21°C° 0 mm 6 mps 737 mmHg 65%
    19:00 +20°C° 0 mm 5 mps 737 mmHg 71%
    20:00 +19°C° 0 mm 5 mps 737 mmHg 73%
    21:00 +19°C° 0 mm 5 mps 737 mmHg 76%
    22:00 +17°C° 0 mm 5 mps 737 mmHg 78%
    23:00 +17°C° 0 mm 5 mps 737 mmHg 78%

    27 April, Saturday

    Time Temperature Precipitation Wind Pressure Humidity
    00:00 +19°C° 0 mm 5 mps 737 mmHg 77%
    01:00 +19°C° 0 mm 5 mps 736 mmHg 77%
    02:00 +18°C° 0 mm 4 mps 736 mmHg 78%
    03:00 +18°C° 0 mm 4 mps 736 mmHg 80%
    04:00 +17°C° 0 mm 4 mps 736 mmHg 81%
    05:00 +17°C° 0.1 mm 3 mps 736 mmHg 83%
    06:00 +17°C° 0.1 mm 3 mps 736 mmHg 86%
    07:00 +16°C° 0.1 mm 3 mps 736 mmHg 89%
    08:00 +17°C° 0.3 mm 4 mps 736 mmHg 87%
    09:00 +16°C° 0.3 mm 5 mps 736 mmHg 85%
    10:00 +17°C° 0.3 mm 5 mps 736 mmHg 84%
    11:00 +16°C° 1.3 mm 5 mps 736 mmHg 84%
    12:00 +16°C° 1.3 mm 5 mps 736 mmHg 84%
    13:00 +16°C° 1.3 mm 5 mps 737 mmHg 85%
    14:00 +14°C° 0.4 mm 5 mps 737 mmHg 87%
    15:00 +12°C° 0.4 mm 5 mps 737 mmHg 89%
    16:00 +9°C° 0.4 mm 6 mps 737 mmHg 91%
    17:00 +9°C° 0.1 mm 5 mps 737 mmHg 91%
    18:00 +9°C° 0.1 mm 5 mps 738 mmHg 91%
    19:00 +10°C° 0.1 mm 4 mps 738 mmHg 90%
    20:00 +10°C° 0.1 mm 4 mps 739 mmHg 91%
    21:00 +9°C° 0.1 mm 3 mps 739 mmHg 92%
    22:00 +9°C° 0.1 mm 2 mps 739 mmHg 92%
    23:00 +9°C° 0 mm 2 mps 739 mmHg 93%

    28 April, Sunday

    Time Temperature Precipitation Wind Pressure Humidity
    00:00 +8°C° 0 mm 2 mps 739 mmHg 94%
    01:00 +7°C° 0 mm 2 mps 739 mmHg 95%
    02:00 +8°C° 0 mm 1 mps 739 mmHg 95%
    03:00 +7°C° 0 mm 1 mps 739 mmHg 94%
    04:00 +7°C° 0 mm 1 mps 739 mmHg 93%
    05:00 +9°C° 0 mm 1 mps 739 mmHg 88%
    06:00 +10°C° 0 mm 1 mps 739 mmHg 83%
    07:00 +12°C° 0 mm 1 mps 739 mmHg 77%
    08:00 +13°C° 0 mm 1 mps 739 mmHg 69%
    09:00 +15°C° 0 mm 1 mps 738 mmHg 61%
    10:00 +18°C° 0 mm 1 mps 738 mmHg 53%
    11:00 +18°C° 0.2 mm 1 mps 738 mmHg 52%
    12:00 +18°C° 0.2 mm 2 mps 738 mmHg 52%
    13:00 +19°C° 0.2 mm 2 mps 737 mmHg 51%
    14:00 +17°C° 1.1 mm 2 mps 737 mmHg 61%
    15:00 +14°C° 1.1 mm 3 mps 737 mmHg 71%
    16:00 +12°C° 1.1 mm 3 mps 737 mmHg 81%
    17:00 +11°C° 0.1 mm 4 mps 737 mmHg 82%
    18:00 +10°C° 0.1 mm 4 mps 738 mmHg 83%
    19:00 +8°C° 0.1 mm 4 mps 738 mmHg 84%
    20:00 +9°C° 0 mm 3 mps 739 mmHg 86%
    21:00 +8°C° 0 mm 3 mps 739 mmHg 87%
    22:00 +7°C° 0 mm 2 mps 740 mmHg 89%
    23:00 +7°C° 0.6 mm 2 mps 740 mmHg 90%
    Show more